Miscellaneous Local Product
Issued by NWS Hastings, NE

Home | Current Version | Previous Version | Text Only | Print | Product List | Glossary On
Versions: 1 2 3 4 5 6 7 8 9 10 11 12 13 14 15 16 17 18 19 20 21 22 23 24 25 26 27 28 29 30 31 32 33 34 35 36 37 38 39 40 41 42 43 44 45 46 47 48 49 50
000
AXUS43 KGID 040002
MISGRI

GID CWA HOURLY WEATHER ROUNDUP
NATIONAL WEATHER SERVICE HASTINGS NE
700 PM CDT SUN MAY 03 2015

NOTE: "FAIR" INDICATES FEW OR NO CLOUDS BELOW 12,000 FEET WITH NO
SIGNIFICANT WEATHER AND/OR OBSTRUCTIONS TO VISIBILITY.

...SOUTH CENTRAL NEBRASKA...

CITY           SKY/WX    TMP DP  RH WIND       PRES   REMARKS
GRAND ISLAND   SUNNY     84  52  33 N20       29.74R
HASTINGS       MOSUNNY   87  41  19 W7        29.72S
KEARNEY        MOSUNNY   82  52  34 N23G30    29.77R
ORD            SUNNY     77  49  37 N26G35    29.79R
YORK           MOSUNNY   84  55  37 NE10G23   29.70S
AURORA         SUNNY     85  48  28 NE15      29.72R
LEXINGTON      SUNNY     81  49  32 N17       29.80R
HOLDREGE       MOSUNNY   84  48  28 N18G28    29.76S
HEBRON         MOSUNNY   87  50  27 S22G30    29.71F

...NEBRASKA PANHANDLE...

CITY           SKY/WX    TMP DP  RH WIND       PRES   REMARKS
CHADRON        MOSUNNY   68  40  35 E14       29.97R
ALLIANCE       CLOUDY    66  41  40 NE20      29.97R
SCOTTSBLUFF    CLOUDY    68  38  33 E15G23    29.98S
SIDNEY         CLOUDY    67  42  40 NE10      29.99R

...WESTERN AND NORTH CENTRAL NEBRASKA...

CITY           SKY/WX    TMP DP  RH WIND       PRES   REMARKS
VALENTINE      SUNNY     70  37  29 NE20G28   29.94R
AINSWORTH      SUNNY     70  38  30 N20G26    29.93R
ONEILL         MOSUNNY   74  45  35 N18G28    29.87R
BROKEN BOW     SUNNY     77  48  35 N18G31    29.83R
IMPERIAL       MOSUNNY   75  41  29 NE16      29.88R
NORTH PLATTE   SUNNY     75  47  36 N17       29.87R
MCCOOK         PTSUNNY   84  45  25 N18       29.80R

...EASTERN NEBRASKA...

CITY           SKY/WX    TMP DP  RH WIND       PRES   REMARKS
NORFOLK        MOSUNNY   84  54  35 N30G37    29.73R
SO SIOUX CITY  MOSUNNY   81  51  35 NE24      29.72S
TEKAMAH        PTSUNNY   83  56  39 S10       29.72R
COLUMBUS       MOSUNNY   79  57  47 SE9       29.72F
ALBION         SUNNY     81  53  36 N17G24    29.75R
OMAHA EPPLEY   CLOUDY    77  59  53 S7        29.73R
MILLARD        CLOUDY    77  58  51 NE3       29.72F
LINCOLN        TSTM      72  63  73 SE18      29.75R
NEBRASKA CITY  PTSUNNY   78  52  41 S7        29.78R
BEATRICE       MOSUNNY   85  58  40 S20G25    29.72S
FALLS CITY     MOSUNNY   82  58  43 S10       29.76S

...NORTHERN KANSAS...

CITY           SKY/WX    TMP DP  RH WIND       PRES   REMARKS
GOODLAND       MOSUNNY   80  43  26 NE7       29.85S
HILL CITY      PTSUNNY   82  51  34 S6        29.76S
NORTON         CLEAR     84  30  14 NW7       29.76S
PHILLIPSBURG   MOSUNNY   90  43  19 S5        29.74S
SMITH CENTER   SUNNY     84  45  24 SW6       29.74F
BELOIT           N/A     84  55  37 S13       29.73F
HAYS           PTSUNNY   84  50  30 S14       29.77S
RUSSELL        MOSUNNY   84  52  33 S13       29.75S
CONCORDIA      PTSUNNY   83  54  36 S18G24    29.75S
SALINA         PTSUNNY   84  56  38 S16       29.77S
TOPEKA         MOSUNNY   83  56  39 S18G25    29.79S



USA.gov is the U.S. government's official web portal to all federal, state and local government web resources and services.